Tracking 32523 objects as of 13-Dec-2025
HD Live streaming from Space Station
objects crossing your sky now

COSMOS 2491 DEB

Track COSMOS 2491 DEB now!
10-day predictions


NORAD ID: 47111
Int'l Code: 2013-076AG
Perigee: 1,348.4 km
Apogee: 1,526.2 km
Inclination: 82.4 °
Period: 114.4 minutes
Semi major axis: 7808 km
RCS: Unknown
Launch date: December 25, 2013
Source: Commonwealth of Independent States (former USSR) (CIS)
Launch site: PLESETSK MISSILE AND SPACE COMPLEX (PKMTR)

Note: This is SATELLITE DEBRIS
Your satellite tracking list
Your tracking list is empty




NASA's NSSDC Master Catalog

Two Line Element Set (TLE):
1 47111U 13076AG  25346.47322630  .00004252  00000-0  24424-1 0  9998
2 47111  82.4379 260.7667 0113883 319.5260  39.7397 12.58257099115769
Source of the keplerian elements: AFSPC